Volver al catálogo

STARLINK-33837

ActivoComunicacionesVLEO
NORAD 63501·PAYLOAD·🇺🇸 United States

Lanzado Apr 7, 2025 desde Vandenberg Space Force Base

Loading…

Próximos Pases (próximas 24 horas)

TLE

ActualizadoSource: CelesTrak SupGP

Época: Sep 15, 2026, 03:28 UTC

1 63501C 25071J   26258.14493056  .00059526  00000+0  19142-2 0  2588
2 63501  53.1595 339.0055 0001253  85.7872 118.3394 15.31672508    16

Sigue STARLINK-33837 en tiempo real con AllMySat

Download on the App Store